Weather History for Dallas Love, TX

Change the Weather History Date:

Friday, June 28, 2013

  Actual Average Record
Temperature  
Mean Temperature 94 °F -  
Max Temperature 106 °F 90 °F 106 °F (2013)
Min Temperature 82 °F 72 °F 68 °F (2003)
Cooling Degree Days 28    
Growing Degree Days 44 (Base 50)    
Moisture  
Dew Point 64 °F    
Average Humidity 40    
Maximum Humidity 54    
Minimum Humidity 26    
Precipitation  
Precipitation 0.00 in - - ()
Sea Level Pressure  
Sea Level Pressure 29.86 in    
Wind  
Wind Speed 7 mph (WNW)    
Max Wind Speed 16 mph    
Max Gust Speed 21 mph    
Visibility 10 miles    
Events      
Averages and records for this station are not official NWS values.
T = Trace of Precipitation, MM = Missing Value Source: NWS Daily Summary

Daily Weather History Graph

Daily Weather History Graph

Search for Another Location

Airport:

Trip Planner

Search our weather history database for the weather conditions in past years. The results will help you decide how hot, cold, wet, or windy it might be!

Date:

Astronomy

Jun. 28, 2013 Rise Set
Actual Time 6:21 AM CDT 8:39 PM CDT
Civil Twilight 5:53 AM CDT 9:08 PM CDT
Nautical Twilight 5:18 AM CDT 9:43 PM CDT
Astronomical Twilight 4:39 AM CDT 10:21 PM CDT
Moon No Moon Rise 12:10 PM CDT (6/28)
Length of Visible Light 15h 15m
Length of Day
14h 17m
Waning Gibbous, 66% of the Moon is Illuminated
Jun 28
Waning Gibbous
Jun 29
Last Quarter
Jul 8
New
Jul 15
First Quarter
Jul 22
Full

Hourly Weather History & Observations

Time (CDT) Temp. Heat Index Dew Point Humidity Pressure Visibility Wind Dir Wind Speed Gust Speed Precip Events Conditions
12:53 AM 90.0 °F 90.6 °F 63.0 °F 40% 29.92 in 10.0 mi SSE 9.2 mph - N/A   Scattered Clouds
1:53 AM 88.0 °F 89.3 °F 64.0 °F 45% 29.91 in 10.0 mi South 3.5 mph - N/A   Mostly Cloudy
2:53 AM 84.9 °F 86.1 °F 64.0 °F 49% 29.90 in 10.0 mi South 4.6 mph - N/A   Mostly Cloudy
3:53 AM 86.0 °F 86.8 °F 63.0 °F 46% 29.90 in 10.0 mi Calm Calm - N/A   Overcast
4:53 AM 84.0 °F 85.4 °F 64.0 °F 51% 29.87 in 10.0 mi Variable 3.5 mph - N/A   Overcast
5:53 AM 84.0 °F 84.9 °F 63.0 °F 49% 29.88 in 10.0 mi SW 5.8 mph - N/A   Overcast
6:53 AM 82.9 °F 84.0 °F 63.0 °F 51% 29.91 in 10.0 mi SSW 6.9 mph - N/A   Overcast
7:53 AM 82.0 °F 83.4 °F 64.0 °F 54% 29.93 in 10.0 mi South 3.5 mph - N/A   Overcast
8:53 AM 84.0 °F 85.4 °F 64.0 °F 51% 29.92 in 10.0 mi SW 5.8 mph - N/A   Overcast
9:53 AM 86.0 °F 86.8 °F 63.0 °F 46% 29.92 in 10.0 mi SW 5.8 mph - N/A   Overcast
10:53 AM 87.1 °F 88.3 °F 64.0 °F 46% 29.91 in 10.0 mi West 4.6 mph - N/A   Overcast
11:53 AM 91.0 °F 92.6 °F 64.0 °F 41% 29.90 in 10.0 mi Variable 3.5 mph - N/A   Mostly Cloudy
12:53 PM 96.1 °F 98.3 °F 64.0 °F 35% 29.88 in 10.0 mi West 5.8 mph - N/A   Mostly Cloudy
1:53 PM 100.0 °F 101.8 °F 62.1 °F 29% 29.86 in 10.0 mi West 9.2 mph - N/A   Mostly Cloudy
2:53 PM 102.9 °F 105.5 °F 63.0 °F 27% 29.84 in 10.0 mi NW 10.4 mph 16.1 mph N/A   Mostly Cloudy
3:53 PM 105.1 °F 109.3 °F 64.9 °F 27% 29.81 in 10.0 mi NNW 6.9 mph 17.3 mph N/A   Mostly Cloudy
4:53 PM 105.1 °F 108.5 °F 64.0 °F 26% 29.80 in 10.0 mi North 16.1 mph - N/A   Scattered Clouds
5:53 PM 102.9 °F 106.8 °F 64.9 °F 29% 29.80 in 10.0 mi North 13.8 mph 18.4 mph N/A   Scattered Clouds
6:53 PM 100.9 °F 104.6 °F 64.9 °F 31% 29.79 in 10.0 mi NNE 13.8 mph 20.7 mph N/A   Scattered Clouds
7:53 PM 99.0 °F 103.5 °F 66.9 °F 35% 29.80 in 10.0 mi NNE 10.4 mph - N/A   Scattered Clouds
8:53 PM 95.0 °F 96.0 °F 63.0 °F 34% 29.81 in 10.0 mi NE 8.1 mph - N/A   Scattered Clouds
9:53 PM 93.0 °F 94.2 °F 63.0 °F 37% 29.83 in 10.0 mi NNE 8.1 mph - N/A   Clear
10:53 PM 91.0 °F 90.9 °F 61.0 °F 36% 29.83 in 10.0 mi NNE 4.6 mph - N/A   Clear
11:53 PM 88.0 °F 88.4 °F 62.1 °F 42% 29.83 in 10.0 mi NNE 3.5 mph - N/A   Clear